Wind_Speed
10 9 8 7 7 7 7 7 8 8 9 9 10 11 11 11 12 12 12 12 12 12 12 12 12 11 11 11 11 10 10 10 9 9 9 9 9 9 8 8 7 7 7
10 10 9 7 7 7 7 7 7 7 8 9 9 10 11 11 11 11 11 11 11 12 12 12 12 11 11 11 11 11 10 10 9 9 9 9 9 9 9 8 8 7 7
10 9 9 7 6 6 6 6 6 6 7 8 9 10 10 10 10 11 11 11 11 11 11 11 11 11 11 11 11 11 11 10 10 9 9 9 9 10 10 9 8 8 8
10 9 8 7 6 5 5 5 5 5 6 7 8 9 9 9 10 10 10 10 11 11 11 11 11 11 11 11 11 11 10 10 9 9 9 9 10 10 10 9 9 8 8
9 8 7 7 6 5 5 4 5 6 6 7 7 8 8 8 9 9 10 10 10 11 11 11 10 10 10 11 11 10 10 9 9 9 9 10 10 10 9 9 9 8 8
9 8 8 7 5 5 4 4 4 5 5 6 6 7 7 8 9 9 10 10 10 10 10 10 10 10 10 10 10 10 10 9 9 9 10 10 10 9 9 9 9 8 8
9 9 8 7 5 4 3 3 4 4 5 5 5 6 7 8 8 9 9 9 9 9 10 10 10 9 10 10 10 9 9 9 9 9 10 10 10 9 9 8 8 8 8
10 9 8 6 5 4 4 4 4 4 5 5 5 5 5 6 7 7 8 8 8 9 9 9 9 9 9 9 9 9 9 9 9 9 9 9 9 9 9 8 8 8 7
10 9 8 7 6 5 4 5 4 4 5 5 5 5 5 6 7 7 7 7 8 8 9 8 8 9 9 9 9 9 9 9 8 8 8 8 8 8 8 8 7 7 7
10 9 8 7 6 5 5 5 4 4 5 5 6 6 6 6 6 6 7 7 7 7 8 8 8 8 8 8 8 8 8 8 8 8 8 8 8 8 7 7 7 6 5
10 9 7 7 6 5 5 5 5 4 5 5 5 6 5 5 5 5 6 6 6 7 7 7 7 7 7 7 7 7 7 7 7 7 7 7 7 7 7 7 6 5 5
10 9 8 6 6 6 6 6 6 5 4 5 5 5 5 5 5 5 5 5 5 6 6 6 6 6 6 6 6 7 6 6 6 7 7 6 6 6 6 6 6 5 4
13 11 9 7 6 6 6 6 5 5 4 5 5 5 5 5 5 5 5 5 5 5 6 6 6 5 5 5 5 5 5 5 5 5 6 6 6 5 5 5 5 5 4
13 12 10 9 8 7 6 6 6 5 4 4 4 4 5 5 4 4 5 4 4 5 5 5 5 5 4 4 4 4 4 4 4 4 4 5 5 5 5 4 4 4 4
15 14 12 10 9 8 6 6 5 4 4 3 3 4 4 4 4 4 4 4 4 4 4 4 4 3 3 4 4 3 3 3 3 3 3 3 4 4 4 4 4 4 4
16 16 13 11 10 8 7 7 6 5 5 4 3 3 3 3 3 3 3 3 3 3 3 3 3 2 2 2 3 3 2 2 2 2 2 3 3 3 4 4 4 4 4
17 17 16 13 12 10 8 7 7 6 5 4 3 3 2 2 2 2 2 2 3 2 2 1 1 1 1 1 1 1 1 1 2 2 2 3 3 4 4 4 4 5 5
16 17 16 14 14 13 10 9 8 7 6 5 4 3 2 1 2 2 1 1 1 1 1 1 0 0 0 0 1 1 2 2 3 3 3 4 4 5 5 5 6 6 6
16 16 16 15 14 13 12 10 9 8 7 5 4 3 2 2 2 2 1 0 0 0 0 0 1 1 2 2 2 2 3 3 4 4 5 5 6 6 6 7 7 8 8
16 16 15 14 14 13 13 11 10 9 8 6 4 3 3 2 3 3 2 2 1 2 2 2 2 2 3 3 4 4 4 5 5 6 6 7 7 8 8 9 9 9 10
16 15 14 14 14 14 13 11 10 9 8 7 6 4 4 4 4 5 4 4 3 3 3 3 3 4 4 4 5 5 6 6 7 7 8 8 9 9 10 10 11 11 11
15 15 14 13 13 13 13 12 10 9 8 7 6 5 4 5 5 6 5 5 4 5 5 5 5 6 6 6 6 7 7 8 8 8 9 10 10 11 11 12 12 12 13
14 15 14 14 13 13 12 12 11 9 9 8 6 6 5 5 6 7 7 6 6 6 6 6 6 7 8 8 8 8 9 10 10 10 10 11 12 13 13 13 13 13 14
14 14 14 15 14 13 12 12 11 10 10 9 8 6 6 6 6 7 7 7 7 6 6 7 8 8 9 9 10 10 10 10 10 11 11 11 12 13 13 13 14 14 14
13 14 14 14 14 14 13 13 12 11 10 10 9 7 7 6 7 7 7 8 7 7 7 8 9 9 10 11 11 11 11 11 11 11 11 13 13 13 13 14 14 14 15
13 13 14 14 14 14 13 13 13 12 11 10 9 9 8 8 8 8 8 8 8 8 8 8 9 10 10 10 10 10 10 11 11 12 12 13 14 14 15 15 15 16 16
Wind_Direction
54 56 58 63 67 72 84 94 102 107 105 105 106 105 102 101 101 99 98 97 98 97 94 91 90 89 87 86 84 83 82 81 79 79 78 77 79 77 73 73 78 82 84
55 59 60 63 71 71 78 89 98 104 104 106 105 103 103 102 102 103 101 98 96 95 93 91 90 88 86 86 85 83 82 82 80 79 78 77 78 77 74 71 74 78 83
54 57 56 58 62 61 68 75 83 96 103 108 107 103 105 105 103 103 103 99 96 94 91 91 89 87 83 82 82 82 81 81 80 80 78 77 76 75 73 72 76 78 82
55 54 55 57 59 57 60 69 79 87 98 106 104 104 106 106 106 105 104 100 96 95 92 90 89 88 85 82 81 79 79 78 79 79 79 78 76 74 74 74 74 77 81
53 55 57 57 53 52 59 71 78 87 97 99 98 102 105 105 104 104 104 100 98 96 94 92 90 89 87 85 82 79 78 78 77 77 81 79 77 75 75 73 72 76 81
51 52 54 52 50 47 52 70 79 85 93 96 97 104 103 103 104 104 104 100 97 96 94 92 90 88 88 88 85 80 77 76 78 79 81 78 76 74 74 73 71 76 80
48 47 49 50 48 43 53 78 80 86 88 90 94 99 101 102 105 106 105 101 98 98 96 94 92 90 88 87 85 81 77 77 77 78 77 77 76 74 74 72 71 74 76
46 46 46 45 38 39 56 70 73 77 80 85 94 98 100 100 102 106 105 103 100 99 96 95 94 91 88 85 84 80 78 79 78 73 71 74 74 73 71 71 72 74 75
45 45 43 42 41 44 56 61 67 75 81 81 86 97 102 98 99 106 105 105 104 103 100 99 97 91 88 86 84 79 77 75 73 72 72 71 71 70 68 66 69 72 74
45 45 42 42 42 44 61 67 63 69 81 81 84 91 98 95 103 110 109 107 107 108 105 100 98 93 89 85 81 76 72 71 73 72 71 71 70 68 65 61 64 66 68
40 40 40 42 46 50 61 61 60 68 80 83 84 84 91 97 105 111 113 113 110 109 107 101 96 93 90 84 79 76 72 72 73 73 71 71 70 68 64 59 59 62 62
33 35 39 43 46 52 55 55 58 69 81 80 81 82 89 97 104 106 107 115 116 112 108 104 99 95 92 86 79 75 75 76 74 70 69 68 66 65 61 57 53 53 53
30 33 37 40 44 49 52 55 55 61 80 84 79 80 86 94 101 100 99 105 112 111 106 103 100 97 95 88 81 76 76 79 75 71 67 63 60 57 54 52 47 44 42
34 33 36 35 39 42 47 49 53 62 75 83 76 79 82 85 95 93 91 104 112 113 110 103 98 96 94 91 79 73 73 73 62 63 60 56 54 50 44 40 36 31 29
33 32 35 36 37 38 41 39 48 59 69 82 85 81 78 78 88 92 93 104 112 111 110 104 98 99 87 83 74 70 68 58 54 54 51 39 37 36 33 28 22 18 16
33 33 35 36 35 37 39 38 42 50 62 76 84 84 83 81 89 97 95 95 105 103 107 106 108 108 91 72 65 69 63 45 41 40 27 20 10 3 2 2 1 356 354
32 32 33 35 33 35 37 38 40 44 53 68 75 72 76 77 70 81 95 90 95 96 104 107 117 125 90 67 48 50 38 22 15 1 343 340 337 333 334 335 335 334 333
31 32 34 34 33 35 39 41 45 46 50 54 56 50 44 56 45 43 48 89 101 106 112 118 354 275 291 304 332 333 334 338 333 323 322 324 323 321 317 314 314 314 314
30 31 33 33 32 34 39 41 44 42 44 48 51 50 41 30 26 15 359 9 148 273 280 249 267 263 260 256 274 293 306 313 316 311 309 312 311 311 309 308 306 306 306
24 25 26 28 30 31 33 34 35 36 38 38 39 49 45 30 9 2 345 304 295 293 280 277 280 290 275 269 276 286 296 299 300 302 303 305 307 307 304 304 302 301 300
20 20 20 24 26 27 29 30 30 31 30 31 30 32 30 20 7 1 349 325 305 293 285 289 293 285 284 284 283 287 290 291 290 293 297 303 304 302 301 299 299 300 302
13 16 16 16 19 20 23 24 24 24 24 23 24 21 15 6 3 356 340 323 313 296 287 289 293 285 281 283 286 289 289 289 290 291 297 302 302 299 297 296 297 298 296
10 11 13 13 12 12 15 17 17 16 16 14 11 7 5 354 349 349 341 327 319 303 290 293 298 292 287 284 283 287 287 289 292 294 296 297 299 300 300 296 297 297 295
7 6 8 9 7 6 7 9 9 10 11 8 5 0 357 353 345 343 345 343 330 315 297 296 297 291 289 289 290 289 292 294 290 295 299 299 299 300 301 300 299 296 298
1 4 4 5 5 4 3 4 3 3 3 0 358 356 348 344 340 338 340 341 332 315 303 297 299 292 289 290 293 294 294 295 296 297 298 300 301 303 304 303 301 297 299
352 357 359 359 0 1 0 360 359 360 358 356 352 350 347 340 331 326 325 328 328 319 312 305 303 301 299 296 295 299 302 301 300 298 298 300 302 301 303 302 302 299 299
Height
5884 5883 5883 5884 5884 5884 5884 5884 5884 5884 5883 5883 5883 5883 5883 5883 5883 5884 5884 5885 5885 5886 5886 5887 5887 5888 5888 5888 5889 5889 5889 5890 5890 5890 5890 5890 5890 5890 5890 5890 5890 5890 5891
5886 5885 5885 5886 5886 5886 5886 5886 5886 5886 5885 5885 5885 5885 5885 5885 5885 5886 5886 5887 5887 5888 5888 5889 5889 5890 5890 5890 5890 5891 5891 5891 5891 5891 5891 5891 5891 5891 5891 5892 5892 5892 5892
5889 5888 5888 5888 5888 5888 5888 5888 5888 5888 5887 5887 5887 5887 5887 5887 5888 5888 5889 5889 5890 5890 5891 5891 5891 5892 5892 5892 5892 5892 5893 5893 5893 5893 5893 5893 5893 5893 5893 5893 5893 5893 5893
5891 5890 5890 5890 5890 5890 5890 5890 5890 5889 5889 5889 5889 5889 5889 5889 5889 5890 5890 5891 5892 5892 5893 5893 5894 5894 5894 5894 5894 5894 5894 5894 5895 5895 5895 5895 5894 5894 5894 5895 5895 5895 5895
5893 5892 5892 5892 5892 5892 5892 5891 5891 5891 5891 5891 5891 5891 5891 5891 5891 5892 5893 5893 5894 5894 5895 5895 5896 5896 5896 5896 5896 5896 5896 5896 5896 5896 5896 5896 5896 5896 5896 5896 5896 5896 5896
5895 5894 5894 5894 5894 5894 5893 5893 5893 5893 5893 5893 5893 5893 5893 5893 5893 5894 5894 5895 5896 5896 5897 5897 5898 5898 5898 5898 5898 5898 5898 5898 5898 5898 5898 5897 5897 5897 5897 5898 5898 5898 5898
5897 5896 5896 5895 5895 5895 5895 5894 5894 5894 5895 5894 5894 5894 5895 5895 5895 5896 5896 5897 5898 5898 5899 5899 5900 5900 5900 5900 5900 5900 5900 5900 5900 5900 5899 5899 5899 5899 5899 5899 5899 5900 5900
5899 5898 5897 5897 5897 5896 5896 5896 5896 5896 5896 5896 5896 5896 5897 5897 5897 5897 5898 5899 5899 5900 5900 5901 5901 5902 5902 5902 5902 5902 5902 5901 5902 5901 5901 5901 5901 5901 5901 5901 5901 5901 5901
5900 5900 5899 5899 5898 5898 5897 5897 5897 5897 5897 5897 5897 5898 5898 5899 5899 5899 5900 5900 5901 5901 5902 5902 5903 5903 5903 5903 5903 5903 5903 5903 5903 5903 5903 5903 5903 5903 5903 5903 5903 5903 5903
5902 5902 5901 5900 5900 5899 5899 5899 5899 5899 5899 5899 5899 5899 5900 5900 5900 5901 5901 5902 5902 5903 5903 5904 5904 5905 5905 5905 5905 5905 5905 5905 5905 5905 5905 5905 5905 5905 5905 5904 5904 5904 5904
5904 5903 5902 5902 5901 5901 5900 5900 5900 5900 5900 5900 5900 5901 5901 5902 5902 5902 5903 5903 5904 5904 5905 5905 5906 5906 5906 5907 5907 5907 5907 5907 5907 5907 5906 5906 5906 5906 5906 5906 5906 5905 5905
5905 5905 5904 5902 5903 5902 5902 5902 5902 5902 5902 5902 5902 5902 5902 5903 5903 5904 5904 5905 5905 5906 5906 5907 5907 5907 5908 5908 5908 5908 5908 5908 5908 5908 5908 5908 5908 5907 5907 5907 5907 5907 5907
5907 5906 5905 5904 5904 5904 5904 5903 5903 5903 5902 5903 5903 5903 5904 5904 5904 5905 5905 5906 5907 5907 5908 5908 5908 5909 5909 5909 5909 5909 5909 5909 5909 5909 5909 5909 5909 5909 5908 5908 5908 5908 5908
5910 5908 5906 5906 5906 5905 5905 5904 5904 5904 5904 5904 5904 5905 5905 5905 5906 5906 5907 5907 5908 5908 5909 5909 5910 5910 5910 5910 5910 5910 5910 5910 5910 5910 5910 5910 5910 5910 5909 5909 5909 5909 5908
5912 5910 5909 5908 5907 5907 5906 5906 5906 5905 5905 5905 5905 5906 5906 5907 5907 5908 5908 5908 5909 5909 5910 5910 5911 5911 5911 5911 5911 5911 5911 5911 5911 5911 5911 5911 5911 5910 5910 5910 5909 5909 5909
5915 5913 5911 5910 5909 5908 5908 5907 5907 5906 5906 5906 5906 5907 5907 5908 5908 5908 5909 5909 5910 5910 5911 5911 5912 5912 5912 5912 5912 5912 5912 5912 5912 5911 5911 5911 5911 5911 5910 5910 5910 5909 5909
5918 5915 5914 5912 5911 5910 5909 5908 5908 5908 5907 5907 5907 5908 5908 5909 5909 5909 5909 5910 5910 5911 5911 5912 5912 5912 5912 5912 5912 5912 5912 5912 5912 5912 5911 5911 5911 5910 5910 5910 5909 5909 5908
5920 5918 5916 5915 5913 5912 5911 5910 5909 5909 5909 5908 5908 5909 5909 5909 5910 5910 5910 5910 5911 5911 5911 5912 5912 5912 5912 5912 5912 5912 5912 5912 5912 5911 5911 5911 5910 5910 5909 5909 5909 5908 5907
5922 5920 5918 5917 5916 5914 5912 5911 5911 5910 5910 5910 5910 5910 5910 5910 5910 5910 5910 5910 5911 5911 5911 5912 5912 5912 5912 5912 5912 5912 5912 5912 5911 5911 5910 5910 5910 5909 5909 5908 5907 5907 5906
5924 5922 5921 5919 5917 5916 5914 5913 5912 5912 5911 5911 5910 5910 5910 5911 5911 5911 5910 5910 5911 5911 5911 5911 5911 5912 5912 5911 5912 5911 5911 5911 5911 5910 5910 5909 5909 5908 5907 5907 5906 5905 5904
5926 5924 5923 5921 5919 5917 5916 5915 5914 5913 5912 5912 5911 5911 5911 5911 5911 5911 5911 5911 5910 5910 5910 5910 5910 5911 5911 5911 5911 5911 5911 5910 5910 5909 5908 5908 5907 5906 5906 5905 5904 5903 5902
5928 5926 5924 5923 5921 5919 5918 5916 5915 5915 5914 5913 5912 5912 5912 5911 5911 5911 5910 5910 5910 5910 5910 5910 5910 5910 5910 5910 5910 5909 5909 5909 5908 5907 5907 5906 5905 5904 5903 5902 5901 5901 5900
5929 5927 5926 5924 5923 5921 5919 5918 5917 5916 5914 5914 5913 5912 5912 5911 5911 5910 5910 5909 5909 5908 5909 5909 5908 5908 5908 5908 5908 5908 5907 5906 5906 5905 5904 5904 5903 5902 5901 5900 5899 5898 5897
5930 5928 5927 5925 5924 5922 5921 5919 5918 5917 5915 5914 5913 5912 5912 5911 5910 5910 5909 5908 5908 5908 5907 5907 5907 5906 5906 5906 5906 5905 5905 5904 5903 5903 5902 5901 5900 5899 5898 5898 5897 5895 5894
5931 5929 5928 5926 5924 5923 5921 5920 5918 5917 5916 5914 5913 5912 5911 5910 5909 5909 5908 5908 5907 5906 5906 5906 5905 5904 5904 5904 5903 5903 5902 5901 5901 5900 5900 5899 5898 5896 5896 5895 5894 5892 5891
5931 5930 5928 5927 5925 5923 5922 5920 5918 5917 5916 5914 5913 5911 5910 5909 5908 5908 5907 5906 5906 5905 5905 5904 5903 5903 5902 5901 5900 5900 5899 5899 5898 5898 5897 5896 5894 5893 5892 5891 5890 5889 5888